This demonstration page uses our WeatherBlox Daily Observations layout. Learn more.

Left ArrowRight Arrow

39.08367, -84.50855

Hourly Observations for June 5, 2020

Temp ( °F °C ) Dew Point ( °F °C ) Humidity (%) Winds ( mph kmh ) Pressure ( in mb ) Visibility ( mi km ) Precip ( " mm )
12:40 am 00:40 Mostly Cloudy 70 21.1 69 20.6 97 97 Calm 29.84 1010 8 12.87472 0 0
12:48 am 00:48 Mostly Cloudy 70 21 70 21 100 100 Calm 29.85 1011 7 11.26538 0 0
12:53 am 00:53 Cloudy 70 21.1 69 20.6 97 97 Calm 29.84 1011 8 12.87472 0 0
1:21 am 01:21 Mostly Cloudy 70 21.1 69 20.6 97 97 NE 6 9 29.85 1011 10 16.0934 0 0
1:28 am 01:28 Mostly Cloudy 70 21.1 69 20.6 97 97 ENE 6 9 29.85 1011 10 16.0934 0 0
1:31 am 01:31 Mostly Cloudy 70 21.1 69 20.6 97 97 NE 5 7 29.85 1011 10 16.0934 0 0
1:44 am 01:44 Mostly Cloudy 70 21.1 69 20.6 97 97 N 3 6 29.85 1011 10 16.0934 0 0
1:53 am 01:53 Cloudy 70 21.1 69 20.6 97 97 Calm 29.84 1010 10 16.0934 0 0
2:05 am 02:05 Cloudy 69 20.6 69 20.6 100 100 S 3 6 29.84 1010 9 14.48406 0 0
2:53 am 02:53 Partly Cloudy 69 20.6 69 20.6 100 100 Calm 29.83 1010 10 16.0934 0 0
3:36 am 03:36 Cloudy 70 21.1 69 20.6 97 97 WSW 3 6 29.85 1011 9 14.48406 0 0
3:53 am 03:53 Cloudy 70 21.1 69 20.6 97 97 WSW 3 6 29.85 1011 8 12.87472 0 0
4:39 am 04:39 Cloudy 70 21.1 69 20.6 97 97 SE 3 6 29.86 1011 7 11.26538 0 0
4:53 am 04:53 Cloudy 70 21.1 69 20.6 97 97 Calm 29.85 1011 8 12.87472 0 0
5:53 am 05:53 Cloudy with Light Rain 69 20.6 69 20.6 100 100 Calm 29.85 1011 5 8.0467 0.01 0.254
6:37 am 06:37 Cloudy with Mist and Fog 70 21.1 69 20.6 97 97 Calm 29.86 1011 5 8.0467 0.001 0.001
6:53 am 06:53 Mostly Cloudy with Mist and Fog 69 20.6 69 20.6 100 100 Calm 29.86 1011 4 6.43736 0.001 0.001
7:53 am 07:53 Mostly Cloudy with Mist and Fog 71 21.7 70 21.1 96 96 Calm 29.87 1012 6 9.65604 0 0
8:53 am 08:53 Partly Cloudy 74 23.3 71 21.7 91 91 Calm 29.89 1012 7 11.26538 0 0
9:31 am 09:31 Mostly Cloudy with Mist and Fog 76 24.4 72 22.2 88 88 Calm 29.89 1012 6 9.65604 0 0
9:53 am 09:53 Mostly Cloudy with Haze 77 25 72 22 83 83 WNW 7 11 29.9 1013 6 9.65604 0 0
10:21 am 10:21 Mostly Cloudy with Haze 78 25.6 70 21.1 76 76 N 6 9 29.9 1012 6 9.65604 0 0
10:53 am 10:53 Partly Cloudy 79 26.1 71 21.7 77 77 VRB 3 6 29.91 1013 9 14.48406 0 0
11:53 am 11:53 Partly Cloudy 82 28 70 21 66 66 VRB 3 6 29.87 1012 10 16.0934 0 0
12:53 pm 12:53 Mostly Cloudy 82 28 68 20 62 62 VRB 6 9 29.88 1012 10 16.0934 0 0
1:53 pm 13:53 Mostly Cloudy 85 29.4 67 19.4 55 55 VRB 3 6 29.88 1012 10 16.0934 0 0
2:53 pm 14:53 Partly Cloudy 86 30 66 18.9 51 51 W 7 11 29.86 1011 10 16.0934 0 0
3:53 pm 15:53 Partly Cloudy 88 31 66 19 49 49 VRB 7 11 29.84 1010 10 16.0934 0 0
4:53 pm 16:53 Partly Cloudy 85 29.4 64 17.8 50 50 NW 5 7 29.85 1011 10 16.0934 0 0
5:53 pm 17:53 Partly Cloudy 88 31 64 18 46 46 NW 7 11 29.84 1010 10 16.0934 0 0
6:53 pm 18:53 Mostly Sunny 87 30.6 65 18.3 48 48 NW 6 9 29.84 1011 10 16.0934 0 0
7:53 pm 19:53 Mostly Sunny 84 28.9 65 18.3 53 53 W 7 11 29.86 1011 10 16.0934 0 0
8:53 pm 20:53 Sunny 80 26.7 66 18.9 62 62 Calm 29.88 1012 10 16.0934 0 0
9:53 pm 21:53 Clear 76 24.4 68 20 77 77 Calm 29.9 1013 10 16.0934 0 0
10:53 pm 22:53 Clear 74 23.3 68 20 82 82 S 3 6 29.92 1013 10 16.0934 0 0
11:53 pm 23:53 Clear 74 23.3 68 20 82 82 Calm 29.92 1013 10 16.0934 0 0

Powered by AerisWeather